GOSAT-GW (IBUKI GW)

Last updated on Mon Sep 21 2026 00:02:46 GMT+0000 (Coordinated Universal Time)

1 64694U 25141A 26263.57603294 .00000390 00000+0 77173-4 0 9997 2 64694 98.0607 199.3516 0001420 84.1622 275.9744 14.67553219 65838
UTC large
Height (km)
Speed (km/s)
/
Latitude / Longitude
Inclination (degrees)
Orbital Period (minutes)
Azimuth
Elevation
Range (km)
Doppler Factor

Next 0 passes for location: London (51.5072 / 0.1276)

No passes found over London.
GOSAT-GW (IBUKI GW)